sat.trackr.live / text

‹ back to catalog

UNKNOWN

NORAD 82189

UNKNOWN UNKNOWN UNKNOWN

§ Identity

Operator
Country
Launch date
Launch site
Launch vehicle
Mass (kg)
RCS (m²)

External: N2YO · Heavens-Above

§ Orbital elements

Epoch: 2026-05-22T05:41:56.835168Z

Period
100.33 min
Inclination
74.0331°
Eccentricity
0.0017730
Mean motion
14.35323131 rev/d
Perigee alt
761.3 km
Apogee alt
786.7 km
Semi-major
7,152.1 km
B*
7.5789e-5
RAAN
114.0032°
Arg perigee
266.1750°
Mean anomaly
93.7376°
Rev number
65,544

§ Raw data

UNKNOWN1 82189U          26142.23746337  .00000191  00000+0  75789-4 0  99982 82189  74.0331 114.0032 0017730 266.1750  93.7376 14.35323131655449

JSON: /api/v1/satellites/82189 · /tle

For live sub-satellite position, see the globe view (requires WebGL).

§ Visibility from observer

Set your observer location to see the next 7 days of passes ≥ 10°. The values pass through the URL so the page stays shareable.

No JS? Fill the form by hand. The geolocation button needs JavaScript.